Regional Weather Roundup
Issued by NWS Midland/Odessa, TX

Home | Current Version | Previous Version | Text Only | Print | Product List | Glossary On
Versions: 1 2 3 4 5 6 7 8 9 10 11 12 13 14 15 16 17 18 19 20 21 22 23 24 25 26 27 28 29 30 31 32 33 34 35 36 37 38 39 40 41 42 43 44 45 46 47 48 49 50
000
ASUS44 KMAF 010810
RWRMAF
MIDLAND AREA WEATHER ROUNDUP
NATIONAL WEATHER SERVICE MIDLAND TX
200 AM CST SUN MAR 01 2015

...IN SOUTHWEST TEXAS AND SOUTHEAST NEW MEXICO...

CITY           SKY/WX    TMP DP  RH WIND       PRES   REMARKS
ALPINE         CLOUDY    32  32  99 CALM      30.16F VSB 1/4
ANDREWS        FOG       28  28 100 E6        30.17F VSB 3/4 WCI  22
ARTESIA        CLOUDY    30  32 100 S15       30.14S WCI  19
BIG SPRING     CLOUDY    29  28  93 NE6       30.23S WCI  23
CARLSBAD       CLOUDY    33  29  85 S9        30.13S WCI  25
DRYDEN           N/A     40  38  93 E8        30.14F WCI  34
FORT STOCKTON  CLOUDY    35  35 100 NW6       30.15S FOG     WCI  30
GUAD PASS      NOT AVBL
HOBBS          FOG       28  28 100 CALM      30.15S VSB<1/4
MARFA          CLEAR     34  28  80 N8        30.11S WCI  27
MIDLAND AIRPK  CLOUDY    31  31 100 E3        30.20R FOG
MIDLAND INTL   CLOUDY    31  30  96 E7        30.18S FOG     WCI  24
ODESSA         FOG       31  29  92 E6        30.18S VSB 1   WCI  25
PECOS          CLOUDY    35  34  96 NE3       30.17F FOG
PRESIDIO       FAIR      46  35  64 E5        30.06S
SEMINOLE       CLOUDY   N/A N/A N/A SE5       30.17F HAZE
SNYDER         CLOUDY   N/A N/A N/A NE5       30.23S FOG
WINK           CLOUDY    34  31  88 E5        30.15F FOG     WCI  30
$$
...OTHER STATIONS IN TEXAS...

CITY           SKY/WX    TMP DP  RH WIND       PRES   REMARKS
ABILENE        CLOUDY    29  27  92 N5        30.25F FOG     WCI  24
AMARILLO       CLOUDY    23  22  96 S9        30.17S FOG     WCI  13
AUSTIN         DRIZZLE   35  35 100 N10       30.25F FOG     WCI  27
BROWNSVILLE    LGT RAIN  50  49  96 NW10      30.15S FOG
CORPUS CHRISTI LGT RAIN  50  49  96 NW10      30.15S FOG
DALLAS FTW     CLOUDY    32  30  92 N5        30.30F FOG     WCI  27
DEL RIO        CLOUDY    43  42  97 SE7       30.19S FOG     WCI  39
EL PASO        CLEAR     50  29  44 E7        30.01S
HOUSTON INT    CLOUDY    53  52  96 NE6       30.20S FOG
LUBBOCK        FOG       24  22  91 SE6       30.17S VSB 1/4 WCI  17
SAN ANGELO     CLOUDY    31  30  96 NE7       30.21F FOG     WCI  24
SAN ANTONIO    LGT RAIN  40  38  93 N9        30.20F FOG     WCI  34
WACO           RAIN      33  32  96 N9        30.29F FOG     WCI  25
WICHITA FALLS  NOT AVBL
$$
...OTHER LOCATIONS IN NEW MEXICO...

CITY           SKY/WX    TMP DP  RH WIND       PRES   REMARKS
ALAMAGORDO     PTCLDY    48  32  53 MISG      30.03R
ALBUQUERQUE    CLOUDY    35  31  85 CALM      30.03R
CANNON AFB     FOG       27  27 100 SW7       30.09F VSB 1/2 WCI  19
CLOVIS         CLOUDY    27  25  93 SW9       30.11F WCI  17
HOLLOMAN AFB   PTCLDY    45  30  55 SE3       30.01R
ROSWELL        CLOUDY    29  28  96 S9        30.12F FOG     WCI  20
RUIDOSO        PTCLDY    45  32  61 MISG      30.08S
SANTA FE       MOCLDY    33  31  92 N3        30.01S
TRUTH OR CONSE PTCLDY    49  37  63 S7        29.99S
TUCUMCARI      CLOUDY    27  24  89 SW9       30.10F WCI  18
$$


USA.gov is the U.S. government's official web portal to all federal, state and local government web resources and services.